This is the latest recevied weather packets stored in our database for station/object N6DZK. If no packets are shown the sender has not sent any weather packets the latest 10 day(s).
| Time | Temp. | Humidity | Pressure | Rain* | Wind** | Luminosity | Snow |
|---|---|---|---|---|---|---|---|
| 1778011290 | 16.67° C | 67% | 1016.6 hPa | 0 mm | - | 501 W/m² | - |
| 1778010986 | 16.67° C | 67% | 1016.6 hPa | 0 mm | - | 494 W/m² | - |
| 1778010683 | 16.11° C | 68% | 1016.7 hPa | 0 mm | - | 475 W/m² | - |
| 1778010380 | 16.11° C | 68% | 1016.8 hPa | 0 mm | - | 348 W/m² | - |
| 1778010076 | 15.56° C | 68% | 1016.8 hPa | 0 mm | - | 318 W/m² | - |
| 1778009773 | 15.56° C | 68% | 1016.9 hPa | 0 mm | - | 265 W/m² | - |
| 1778009470 | 16.11° C | 68% | 1016.8 hPa | 0 mm | - | 291 W/m² | - |
| 1778009169 | 16.11° C | 67% | 1016.9 hPa | 0 mm | - | 336 W/m² | - |
| 1778008866 | 15.56° C | 67% | 1016.9 hPa | 0 mm | - | 319 W/m² | - |
| 1778008564 | 15.56° C | 68% | 1016.7 hPa | 0 mm | - | 293 W/m² | - |
| 1778008261 | 15.56° C | 68% | 1016.7 hPa | 0 mm | - | 304 W/m² | - |
| 1778007956 | 15.56° C | 69% | 1016.8 hPa | 0 mm | - | 287 W/m² | - |
| 1778007652 | 15.56° C | 68% | 1016.6 hPa | 0 mm | - | 294 W/m² | - |
| 1778007349 | 15° C | 68% | 1016.8 hPa | 0 mm | - | 236 W/m² | - |
| 1778007045 | 15° C | 69% | 1016.9 hPa | 0 mm | - | 198 W/m² | - |
| 1778006742 | 15° C | 68% | 1016.8 hPa | 0 mm | - | 195 W/m² | - |
| 1778006439 | 15° C | 69% | 1016.8 hPa | 0 mm | - | 177 W/m² | - |
| 1778006136 | 15° C | 68% | 1016.7 hPa | 0 mm | - | 173 W/m² | - |
| 1778005833 | 15° C | 68% | 1016.5 hPa | 0 mm | - | 162 W/m² | - |
| 1778005529 | 15° C | 69% | 1016.7 hPa | 0 mm | - | 134 W/m² | - |
| 1778005227 | 15° C | 67% | 1016.6 hPa | 0 mm | - | 146 W/m² | - |
| 1778004923 | 15° C | 67% | 1016.6 hPa | 0 mm | - | 172 W/m² | - |
| 1778004621 | 15° C | 67% | 1016.6 hPa | 0 mm | - | 195 W/m² | - |
| 1778004316 | 15° C | 68% | 1016.4 hPa | 0 mm | - | 168 W/m² | - |
| 1778004015 | 15° C | 68% | 1016.6 hPa | 0 mm | - | 150 W/m² | - |
* Rain latest hour (hover to see other rain measurements)
** Current wind speed in m/s (hover to see current wind gust speed)